User: anonymous   Login
Location: Perryvale
(54.4667°N, 113.3833°W)
Time: 04:25:19
(UTC+00:00)
Language:

Tiros 1 - Orbit

View from above orbital plane
View from above orbital plane
View from above satellite
View from above satellite

Ground track
Ground track

The orbit data is extracted from the following two-line orbital elements,

1 00029U 60002B   24141.04787645  .00002308  00000-0  35758-3 0  9996
2 00029  48.3792  22.0890 0023733 247.3079 112.5324 14.76325536430004
Epoch (UTC): 20 May 2024 01:08:56
Eccentricity: 0.0023733
inclination: 48.3792°
perigee height: 624 km
apogee height: 657 km
right ascension of ascending node: 22.0890°
argument of perigee: 247.3079°
revolutions per day: 14.76325536
mean anomaly at epoch: 112.5324°
orbit number at epoch: 43000

The dashed part of the orbit path shows where the satellite is in the earth's shadow,  

DLR